Regional Weather Roundup
Issued by NWS

Home | Current Version | Previous Version | Graphics & Text | Print | Product List | Glossary On
Versions: 1 2 3 4 5 6 7 8 9 10 11 12 13 14 15 16 17 18 19 20 21 22 23 24 25 26 27 28 29 30 31 32 33 34 35 36 37 38 39 40 41 42 43 44 45 46 47 48 49 50
490
ASUS44 KEWX 212212
RWRTX
SOUTH TEXAS REGIONAL WEATHER ROUNDUP
NATIONAL WEATHER SERVICE AUSTIN/SAN ANTONIO TX
400 PM CST TUE FEB 21 2017

NOTE: "FAIR" INDICATED FEW OR NO CLOUDS BELOW 12,000 FEET WITH NO
SIGNIFICANT WEATHER AND/OR OBSTRUCTIONS TO VISIBILITY.

* - THESE STATIONS ARE NOT NWS OR FAA STATIONS...AND ARE NOT SUBJECT
    TO NWS AND FAA QUALITY CONTROL.

TXZ171-172-183>190-212300-
TEXAS HILL COUNTRY AND EDWARDS PLATEAU

CITY           SKY/WX    TMP DP  RH WIND       PRES   REMARKS
JUNCTION       SUNNY     80  35  19 NW10G22   29.99F
*LLANO         SUNNY     79  37  22 NW14      29.99F
BURNET         SUNNY     78  37  22 N8        29.98F
*HORSESHOE BAY   N/A     78  37  22 NW14      29.96F
*KERRVILLE     SUNNY     80  30  16 NW15      29.98F
*FREDERICKSBRG SUNNY     78  28  16 NW13      29.98F
*ROCKSPRINGS   SUNNY     79  37  22 N13G18    30.04F
*BOERNE STAGE  SUNNY     79  27  14 N14G20    29.98S
*CASTROVILLE   SUNNY     85  33  15 NW13      29.95F
HONDO          SUNNY     88  33  14 N16G23    29.95F
*UVALDE        SUNNY     82  38  20 W8G20     29.98F
DEL RIO        SUNNY     85  29  13 W15G23    29.98F
LAUGHLIN AFB   SUNNY     84  33  16 NW14G24   29.98F
CARRIZO SPRGS  SUNNY     86  34  15 NW12G22   29.96F
*EAGLE PASS    CLEAR     86  32  14 NW14G22   29.98F
$$

TXZ173-191>194-202-209-217>225-228-212300-
CENTRAL AND SOUTH CENTRAL TEXAS

CITY           SKY/WX    TMP DP  RH WIND       PRES   REMARKS
GEORGETOWN     SUNNY     79  37  22 NW15      29.93F
AUSTIN/BERGSTM SUNNY     80  38  22 NW14      29.92F
AUSTIN/MABRY   SUNNY     81  39  22 VRB7      29.94F
*AUSTIN/EXEC   SUNNY     77  36  22 N15       29.94S
*LAGO VISTA    SUNNY     78  34  20 NW8G23    29.96F
SAN MARCOS     SUNNY     79  46  31 NW16      29.95F
NEW BRAUNFELS  SUNNY     84  32  15 NW17      29.93F
RANDOLPH AFB   SUNNY     83  28  13 NW13      29.93F
PT SAN ANTONIO SUNNY     83  35  17 NW14G24   29.92S
SAN ANTONIO    SUNNY     84  30  14 N15G24    29.94F
STINSON FIELD  SUNNY     86  36  16 NW9       29.91F
*PLEASANTON    SUNNY     85  39  19 W13G21    29.93F
*LA GRANGE     SUNNY     79  44  29 NW15      29.91S
*GIDDINGS      SUNNY     76  40  27 N13G18    29.93F
*GONZALES      SUNNY     80  45  28 NW13      29.92F
$$

TXZ163>164-176>182-195>201-210>213-226-227-235-212300-
SOUTHEAST TEXAS

CITY           SKY/WX    TMP DP  RH WIND       PRES   REMARKS
COLLEGE STN    SUNNY     75  48  38 NW15      29.91S
*BRYAN         SUNNY     74  46  37 NW10G22   29.92S
*CALDWELL      NOT AVBL
*CROCKETT        N/A    N/A N/A N/A MISG        N/A
*BRENHAM       SUNNY     76  47  34 NW13G21   29.92S
HUNTSVILLE     MOSUNNY   74  47  38 NW8G20    29.89S
CONROE         SUNNY     74  49  41 NW13G21   29.88F
HOUSTON BUSH   MOSUNNY   75  47  36 N15G25    29.88S
HOUSTON HOBBY  MOSUNNY   76  43  30 NW17G29   29.86F
*HOUSTON SW AP SUNNY     74  51  43 NW16G23   29.89S
PEARLAND       SUNNY     78  46  32 NW12G22   29.88F
HOUSTON HOOKS  MOSUNNY   76  49  38 NW14G21   29.88F
ELLINGTON FLD  MOSUNNY   75  57  53 NW15      29.88F
SUGAR LAND     SUNNY     73  50  44 N16       29.89S
*HOUSTON EXEC  SUNNY     73  45  35 N15G23    29.91S
*CLEVELAND MUN SUNNY     74  52  45 N17G23    29.88S
*WHARTON       SUNNY     75  46  35 NW12      29.92S
*COLUMBUS      FAIR      75  39  26 NW12G21   29.92S
*EAGLE LAKE    CLEAR     77  49  37 NW13G20   29.91S
$$

TXZ214>216-236>238-212300-
THE UPPER TEXAS COAST

CITY           SKY/WX    TMP DP  RH WIND       PRES   REMARKS
*ORANGE        MOSUNNY   73  56  56 NW5       29.86S
PORT ARTHUR    SUNNY     73  57  57 NW6       29.84S
GALVESTON      SUNNY     74  59  59 N13       29.88S
ANGLETON       SUNNY     76  51  41 N17       29.89S
*BAY CITY      SUNNY     76  48  37 NW14G20   29.90S
PALACIOS       SUNNY     78  42  27 NW16      29.91S
$$

TXZ229>234-239>247-212300-
TEXAS COASTAL BEND AND RIO GRANDE PLAINS

CITY           SKY/WX    TMP DP  RH WIND       PRES   REMARKS
VICTORIA       SUNNY     79  39  23 NW20      29.92F
*BEEVILLE      SUNNY     84  44  24 NW10G18   29.92F
ROCKPORT       SUNNY     83  42  23 NW8       29.91F
*PORT ARANSAS  SUNNY     82  41  23 NW15      29.91F
*PORT LAVACA   SUNNY     78  47  33 NW18      29.92F
*INGLESIDE     SUNNY     84  40  21 NW25      29.91F
CORPUS CHRISTI MOSUNNY   84  46  26 N12       29.91F
CORPUS NAS     MOSUNNY   82  70  66 N13       29.91F
*ROBSTOWN      MOSUNNY   88  34  14 NW18G25   29.91F
ALICE          SUNNY     88  27  11 W21G31    29.91F
KINGSVILLE NAS SUNNY     89  31  12 W23G35    29.91F
COTULLA        SUNNY     88  29  12 NW20G29   29.95F
*FAITH RANCH   SUNNY     88  28  11 NW12G22   29.97F
LAREDO         SUNNY     88  28  11 NW16      29.97F
$$

TXZ248>255-212300-
DEEP SOUTH TEXAS

CITY           SKY/WX    TMP DP  RH WIND       PRES   REMARKS
BROWNSVILLE    SUNNY     88  29  12 W18G24    29.93F
PORT ISABEL    SUNNY     89  27  10 NW21G30   29.92F
*SOUTH PADRE   NOT AVBL
HARLINGEN      SUNNY     91  26   9 NW17      29.92F
*HEBBRONVILLE  SUNNY     86  24  10 NW15G26   29.96F
MCALLEN        SUNNY     93  24   8 W14       29.94F
*WESLACO       SUNNY     90  28  11 N14G22    29.93F
FALFURRIAS     SUNNY     89  23   9 W22       29.93S
EDINBURG       SUNNY     93  16   6 NW16G22   29.94F
*ZAPATA        SUNNY     90  26  10 NW14G20   29.97S
$$

TXZ213>215-236>238-242>244-246-247-251-254-255-212300-
CMAN STATIONS

STATION/POSITION TIME  TEMP    WIND        PRES    WAVE
                       AIR SEA DIR/SP/G            HT/PER
                 (UTC) (F)     (DEG/KT/KT) (MB)    (FT/S)
SABINE PASS      2148   67 68  140/  8/  9 1012.3
SEA RIM ST PARK  2100   66     140/  8/ 11 1011.4
NORTH JETTY/GLS  2148          340/ 12/ 15   N/A
EAGLE POINT      2148   72 67   10/  7/ 10 1011.4
MORGANS POINT    2148   73 67  300/  7/ 12 1011.2
MISSION/ARANSAS  2100   77                 1014.0
PORT O`CONNOR    2148   72     310/ 12/ 13 1012.7
PORT ARANSAS     2100   79 67  290/ 14/ 20 1013.7
MALAQUITE BEACH  2148   79 69  330/ 17/ 19 1013.5
BAFFIN BAY       2148   82 71  290/ 21/ 25 1012.9
PORT ISABEL      2148   86 71  320/ 11/ 18 1013.3
$$

GMZ080-GMZ150>470-212300-
OFFSHORE BUOY REPORTS

STATION/POSITION TIME  TEMP    WIND        PRES    WAVE
                       AIR SEA DIR/SP/G            HT/PER
                 (UTC) (F)     (DEG/KT/KT) (MB)    (FT/S)
20 E GALVESTON   2150   67 65  300/ 14/ 16 1011.0    3/ 6
90 E PT ARANSAS  2150   71 70  300/ 17/ 19 1012.5    5/ 5
35 NE PT MANSFLD 2150   73     350/ 10/ 12 1012.6    2/ 7
200 E PT ISABEL  2150   74 74  290/ 19/ 23 1012.0    5/ 6
$$




USA.gov is the U.S. government's official web portal to all federal, state and local government web resources and services.